User: anonymous   Login
Location: Newark
(49.4642°N, 2.1122°E)
Time: 21:14:10
(UTC+00:00)
Language:

SPROUT - Orbit

View from above orbital plane
View from above orbital plane
View from above satellite
View from above satellite

Ground track
Ground track

The orbit data is extracted from the following two-line orbital elements,

1 39770U 14029E   20185.35598332  .00000418  00000-0  51849-4 0  9990
2 39770  97.8978 291.5669 0007512 278.3358  81.6998 14.87783416331428
Epoch (UTC): 03 July 2020 08:32:36
Eccentricity: 0.0007512
inclination: 97.8978°
perigee height: 599 km
apogee height: 610 km
right ascension of ascending node: 291.5669°
argument of perigee: 278.3358°
revolutions per day: 14.87783416
mean anomaly at epoch: 81.6998°
orbit number at epoch: 33142

The dashed part of the orbit path shows where the satellite is in the earth's shadow,  

DLR